This is the latest recevied weather packets stored in our database for station/object KA1JKB. If no packets are shown the sender has not sent any weather packets the latest 10 day(s).
| Time | Temp. | Humidity | Pressure | Rain* | Wind** | Luminosity | Snow |
|---|---|---|---|---|---|---|---|
| 1777511043 | 7.22° C | 99% | 1009.4 hPa | 1.78 mm | - | 0 W/m² | - |
| 1777510739 | 7.22° C | 99% | 1009.1 hPa | 1.27 mm | - | 0 W/m² | - |
| 1777510436 | 7.22° C | 99% | 1009.1 hPa | 3.05 mm | - | 0 W/m² | - |
| 1777510132 | 7.78° C | 99% | 1009.1 hPa | 1.78 mm | - | 0 W/m² | - |
| 1777509829 | 7.78° C | 99% | 1008.9 hPa | 0 mm | - | 0 W/m² | - |
| 1777509524 | 7.78° C | 99% | 1009 hPa | 1.27 mm | - | 0 W/m² | - |
| 1777509222 | 7.78° C | 99% | 1009 hPa | 1.27 mm | - | 0 W/m² | - |
| 1777508919 | 7.78° C | 99% | 1009 hPa | 1.78 mm | - | 0 W/m² | - |
| 1777508615 | 7.78° C | 99% | 1008.7 hPa | 1.27 mm | - | 0 W/m² | - |
| 1777508313 | 7.78° C | 99% | 1008.7 hPa | 3.05 mm | - | 0 W/m² | - |
| 1777508010 | 8.33° C | 99% | 1008.7 hPa | 3.05 mm | - | 0 W/m² | - |
| 1777507706 | 8.33° C | 99% | 1008.7 hPa | 4.32 mm | - | 1 W/m² | - |
| 1777507403 | 8.33° C | 99% | 1008.7 hPa | 3.05 mm | - | 0 W/m² | - |
| 1777507101 | 8.33° C | 99% | 1008.5 hPa | 6.6 mm | - | 1 W/m² | - |
| 1777506798 | 8.33° C | 99% | 1008.4 hPa | 7.87 mm | - | 5 W/m² | - |
| 1777506495 | 8.89° C | 99% | 1008.4 hPa | 4.32 mm | - | 3 W/m² | - |
| 1777506190 | 8.89° C | 99% | 1008.5 hPa | 3.05 mm | - | 4 W/m² | - |
| 1777505887 | 8.89° C | 98% | 1008.2 hPa | 3.05 mm | - | 7 W/m² | - |
| 1777505583 | 8.89° C | 98% | 1008.3 hPa | 3.05 mm | - | 12 W/m² | - |
| 1777505279 | 8.89° C | 98% | 1008.3 hPa | 1.78 mm | - | 12 W/m² | - |
| 1777504976 | 8.89° C | 98% | 1008.3 hPa | 0 mm | - | 19 W/m² | - |
| 1777504673 | 8.89° C | 98% | 1008.3 hPa | 0 mm | - | 15 W/m² | - |
| 1777504371 | 8.89° C | 98% | 1008.4 hPa | 0 mm | - | 19 W/m² | - |
| 1777504070 | 8.89° C | 98% | 1008.3 hPa | 0 mm | - | 16 W/m² | - |
| 1777503767 | 9.44° C | 98% | 1008.1 hPa | 0 mm | - | 27 W/m² | - |
* Rain latest hour (hover to see other rain measurements)
** Current wind speed in m/s (hover to see current wind gust speed)